AFL1745 UHSS-UUEE

Flight info

Callsign AFL1745
Flight time N/A
Altitude 36000
Route IDRUT1A IDRUT R446 DASKO M131 AMUPI B148 FA N742 OLDEP/K0906F380 N742 OLAPI/K0911F400 N742 UHT T791 GONIB T187 NAZOL T791 KTL T187 ROMTA ROMTA3E
Aircraft A359/H-SDE2E3GHIJ3J4J5LM1ORWXY/LB1D1

Departure

Time 2026-04-27 07:22
Airport Yuzhno-Sakhalinsk International Airport (UHSS)

Arrival

Time N/A
Airport Sheremetyevo International Airport (UUEE)
Time Latitude Longitude Altitude Speed Heading
2026-04-27 07:12 46.88922 142.72097 87 ft 0 kts 180°
2026-04-27 07:16 46.88910 142.72097 86 ft 6 kts 180°
2026-04-27 07:17 46.88878 142.72097 87 ft 10 kts 180°
2026-04-27 07:17 46.88777 142.72094 86 ft 14 kts 181°
2026-04-27 07:17 46.88720 142.72079 88 ft 7 kts 213°
2026-04-27 07:17 46.88698 142.72014 86 ft 7 kts 264°
2026-04-27 07:18 46.88697 142.71921 83 ft 13 kts 270°
2026-04-27 07:18 46.88674 142.71777 86 ft 16 kts 217°
2026-04-27 07:18 46.88506 142.71741 86 ft 32 kts 180°
2026-04-27 07:18 46.88238 142.71736 88 ft 45 kts 180°
2026-04-27 07:19 46.87898 142.71729 89 ft 51 kts 181°
2026-04-27 07:19 46.87548 142.71721 87 ft 50 kts 181°
2026-04-27 07:19 46.87210 142.71711 88 ft 44 kts 181°
2026-04-27 07:19 46.87101 142.71706 90 ft 7 kts 190°
2026-04-27 07:20 46.87058 142.71690 90 ft 4 kts 161°
2026-04-27 07:20 46.87056 142.71708 89 ft 2 kts 92°
2026-04-27 07:20 46.87069 142.71716 89 ft 1 kts
2026-04-27 07:20 46.87083 142.71712 90 ft 5 kts 348°
2026-04-27 07:21 46.87116 142.71708 90 ft 0 kts
2026-04-27 07:21 46.87252 142.71712 87 ft 50 kts
2026-04-27 07:22 46.87808 142.71724 88 ft 106 kts
2026-04-27 07:22 46.88711 142.71751 87 ft 153 kts
2026-04-27 07:22 46.89796 142.71793 650 ft 149 kts
2026-04-27 07:22 46.90817 142.71815 1257 ft 147 kts 359°
2026-04-27 07:23 46.91862 142.71365 1597 ft 163 kts 340°
2026-04-27 07:23 46.93001 142.70850 1842 ft 180 kts 349°
2026-04-27 07:23 46.94290 142.70425 2087 ft 201 kts 352°
2026-04-27 07:23 46.95727 142.69974 2355 ft 221 kts 351°
2026-04-27 07:24 46.97293 142.69478 2672 ft 239 kts 352°
2026-04-27 07:24 46.98946 142.68949 3213 ft 247 kts 352°
2026-04-27 07:24 47.00644 142.68403 3804 ft 252 kts 352°
2026-04-27 07:24 47.02345 142.67857 4394 ft 257 kts 349°
2026-04-27 07:25 47.04116 142.67288 4906 ft 264 kts 348°
2026-04-27 07:25 47.05920 142.66707 5508 ft 267 kts 347°
2026-04-27 07:25 47.07737 142.66121 6174 ft 268 kts 346°
2026-04-27 07:25 47.09510 142.65291 6781 ft 269 kts 335°
2026-04-27 07:26 47.11217 142.64136 7358 ft 272 kts 330°
2026-04-27 07:26 47.12928 142.62912 7913 ft 276 kts 331°
2026-04-27 07:26 47.14666 142.61668 8493 ft 279 kts 330°
2026-04-27 07:26 47.16423 142.60417 9098 ft 282 kts 330°
2026-04-27 07:27 47.18201 142.59151 9650 ft 286 kts 330°
2026-04-27 07:27 47.19999 142.57868 10217 ft 290 kts 330°
2026-04-27 07:27 47.21857 142.56542 10529 ft 304 kts 330°
2026-04-27 07:27 47.23799 142.55156 10751 ft 318 kts 330°
2026-04-27 07:28 47.25833 142.53706 11003 ft 331 kts 330°
2026-04-27 07:28 47.27950 142.52200 11263 ft 344 kts 331°
2026-04-27 07:28 47.30112 142.50659 11516 ft 355 kts 331°
2026-04-27 07:28 47.31952 142.49345 11714 ft 365 kts 331°
2026-04-27 07:29 47.32478 142.48970 11775 ft 367 kts 331°
2026-04-27 07:29 47.34802 142.47313 12155 ft 373 kts 330°
2026-04-27 07:29 47.37148 142.45641 12620 ft 376 kts 330°
2026-04-27 07:29 47.39518 142.43952 13090 ft 380 kts 330°
2026-04-27 07:30 47.41903 142.42248 13567 ft 382 kts 330°
2026-04-27 07:30 47.44303 142.40528 13920 ft 384 kts 330°
2026-04-27 07:30 47.46647 142.38674 14000 ft 382 kts 322°
2026-04-27 07:30 47.48654 142.36139 14072 ft 378 kts 310°
2026-04-27 07:31 47.50401 142.33234 14479 ft 378 kts 306°
2026-04-27 07:31 47.52035 142.30196 14967 ft 377 kts 303°
2026-04-27 07:31 47.53626 142.27098 15414 ft 378 kts 302°
2026-04-27 07:31 47.55217 142.23969 15870 ft 381 kts 302°
2026-04-27 07:32 47.56803 142.20872 16312 ft 383 kts 302°
2026-04-27 07:32 47.58428 142.17738 16763 ft 385 kts 302°
2026-04-27 07:32 47.60077 142.14595 17212 ft 387 kts 302°
2026-04-27 07:32 47.61739 142.11447 17646 ft 389 kts 302°
2026-04-27 07:33 47.63417 142.08281 18098 ft 392 kts 302°
2026-04-27 07:33 47.65108 142.05091 18482 ft 394 kts 302°
2026-04-27 07:33 47.66804 142.01885 18830 ft 396 kts 302°
2026-04-27 07:33 47.68497 141.98640 19176 ft 399 kts 301°
2026-04-27 07:34 47.70188 141.95361 19528 ft 401 kts 301°
2026-04-27 07:34 47.71883 141.92059 19877 ft 403 kts 301°
2026-04-27 07:34 47.73589 141.88734 20226 ft 405 kts 301°
2026-04-27 07:34 47.75304 141.85391 20581 ft 408 kts 301°
2026-04-27 07:35 47.77030 141.82030 20942 ft 410 kts 301°
2026-04-27 07:35 47.78765 141.78651 21318 ft 412 kts 301°
2026-04-27 07:35 47.80487 141.75298 21685 ft 414 kts 301°
2026-04-27 07:35 47.82244 141.71880 22031 ft 417 kts 301°
2026-04-27 07:36 47.84005 141.68449 22403 ft 419 kts 301°
2026-04-27 07:36 47.85777 141.64985 22760 ft 421 kts 301°
2026-04-27 07:36 47.87553 141.61504 23127 ft 423 kts 301°
2026-04-27 07:36 47.89338 141.58003 23474 ft 426 kts 301°
2026-04-27 07:37 47.91133 141.54479 23797 ft 428 kts 300°
2026-04-27 07:37 47.92934 141.50940 24160 ft 429 kts 301°
2026-04-27 07:37 47.94738 141.47395 24507 ft 429 kts 301°
2026-04-27 07:37 47.96551 141.43846 24813 ft 431 kts 301°
2026-04-27 07:38 47.98388 141.40290 25120 ft 433 kts 301°
2026-04-27 07:38 48.00241 141.36727 25427 ft 435 kts 300°
2026-04-27 07:38 48.02098 141.33157 25726 ft 436 kts 300°
2026-04-27 07:38 48.03961 141.29568 26019 ft 438 kts 300°
2026-04-27 07:39 48.05833 141.25955 26328 ft 439 kts 300°
2026-04-27 07:39 48.07679 141.22379 26619 ft 441 kts 299°
2026-04-27 07:39 48.09555 141.18740 26929 ft 443 kts 300°
2026-04-27 07:39 48.11463 141.15030 27232 ft 445 kts 300°
2026-04-27 07:40 48.13325 141.11405 27522 ft 446 kts 299°
2026-04-27 07:40 48.15219 141.07711 27812 ft 448 kts 299°
2026-04-27 07:40 48.17116 141.04006 28107 ft 450 kts 299°
2026-04-27 07:40 48.19023 141.00279 28399 ft 451 kts 298°
2026-04-27 07:41 48.20934 140.96541 28673 ft 453 kts 298°
2026-04-27 07:41 48.22853 140.92772 28944 ft 454 kts 298°
2026-04-27 07:41 48.24773 140.88976 29215 ft 457 kts 299°
2026-04-27 07:41 48.26696 140.85162 29450 ft 459 kts 298°
2026-04-27 07:42 48.28620 140.81340 29716 ft 460 kts 298°
2026-04-27 07:42 48.30554 140.77497 29963 ft 462 kts 298°
2026-04-27 07:42 48.32490 140.73647 30193 ft 463 kts 298°
2026-04-27 07:42 48.34437 140.69772 30370 ft 465 kts 298°
2026-04-27 07:43 48.36388 140.65884 30588 ft 466 kts 298°
2026-04-27 07:43 48.38341 140.61993 30901 ft 465 kts 298°
2026-04-27 07:43 48.40290 140.58099 31073 ft 467 kts 299°
2026-04-27 07:43 48.42247 140.54184 31268 ft 468 kts 299°
2026-04-27 07:44 48.44202 140.50267 31547 ft 467 kts 299°
2026-04-27 07:44 48.46150 140.46361 31806 ft 467 kts 299°
2026-04-27 07:44 48.48103 140.42449 32055 ft 467 kts 299°
2026-04-27 07:44 48.50054 140.38542 32278 ft 466 kts 299°
2026-04-27 07:45 48.51979 140.34687 32503 ft 466 kts 299°
2026-04-27 07:45 48.53930 140.30775 32756 ft 466 kts 300°
2026-04-27 07:45 48.55883 140.26847 32845 ft 469 kts 300°
2026-04-27 07:45 48.57842 140.22892 33013 ft 470 kts 300°
2026-04-27 07:46 48.59607 140.18777 33212 ft 463 kts 292°
2026-04-27 07:46 48.61007 140.14431 33428 ft 458 kts 287°
2026-04-27 07:46 48.62239 140.10011 33647 ft 457 kts 286°
2026-04-27 07:46 48.63415 140.05556 33854 ft 456 kts 285°
2026-04-27 07:47 48.64558 140.01089 34052 ft 455 kts 285°
2026-04-27 07:47 48.65689 139.96610 34206 ft 456 kts 285°
2026-04-27 07:47 48.66816 139.92134 34333 ft 457 kts 285°
2026-04-27 07:48 48.69106 139.83047 34402 ft 464 kts 286°
2026-04-27 07:48 48.70261 139.78484 34545 ft 464 kts 286°
2026-04-27 07:48 48.71420 139.73912 34706 ft 463 kts 286°
2026-04-27 07:49 48.73336 139.66339 34939 ft 464 kts 286°
2026-04-27 07:49 48.74486 139.61778 35071 ft 464 kts 286°
2026-04-27 07:49 48.75635 139.57211 35210 ft 464 kts 286°
2026-04-27 07:49 48.76782 139.52643 35351 ft 464 kts 286°
2026-04-27 07:50 48.78298 139.46583 35467 ft 466 kts 286°
2026-04-27 07:50 48.80222 139.38875 35656 ft 466 kts 286°
2026-04-27 07:50 48.81373 139.34276 35805 ft 466 kts 286°
2026-04-27 07:51 48.82521 139.29678 35927 ft 466 kts 286°
2026-04-27 07:51 48.84823 139.20413 35975 ft 472 kts 286°
2026-04-27 07:52 48.87135 139.11069 35966 ft 473 kts 286°
2026-04-27 07:52 48.89445 139.01709 35968 ft 472 kts 286°
2026-04-27 07:53 48.91744 138.92350 35962 ft 472 kts 286°
2026-04-27 07:53 48.94018 138.83055 35953 ft 473 kts 286°
2026-04-27 07:54 48.96302 138.73671 35955 ft 473 kts 286°
2026-04-27 07:54 48.98577 138.64284 35962 ft 473 kts 287°
2026-04-27 07:55 49.00850 138.54870 35950 ft 474 kts 286°
2026-04-27 07:55 49.03120 138.45431 35951 ft 474 kts 286°
2026-04-27 07:56 49.05379 138.35986 35947 ft 474 kts 286°
2026-04-27 07:56 49.07631 138.26542 35945 ft 474 kts 286°
2026-04-27 07:57 49.10636 138.17530 35948 ft 482 kts 302°
2026-04-27 07:57 49.15357 138.10157 35947 ft 493 kts 320°
2026-04-27 07:58 49.21176 138.04502 35950 ft 497 kts 325°
2026-04-27 07:58 49.27156 137.99171 35964 ft 498 kts 326°
2026-04-27 07:59 49.33143 137.93837 35950 ft 498 kts 326°
2026-04-27 07:59 49.42084 137.85739 35954 ft 497 kts 326°
2026-04-27 08:00 49.47991 137.80342 35973 ft 497 kts 326°
2026-04-27 08:00 49.53932 137.74894 35956 ft 497 kts 326°
2026-04-27 08:01 49.59878 137.69432 35956 ft 497 kts 326°
2026-04-27 08:01 49.65819 137.63962 35952 ft 497 kts 326°
2026-04-27 08:02 49.71765 137.58471 35957 ft 497 kts 326°
2026-04-27 08:02 49.77689 137.52973 35960 ft 497 kts 326°
2026-04-27 08:03 49.83612 137.47460 35961 ft 497 kts 326°
2026-04-27 08:03 49.89534 137.41933 35966 ft 497 kts 326°
2026-04-27 08:04 49.95443 137.36400 35965 ft 495 kts 327°
2026-04-27 08:04 50.01340 137.30868 35968 ft 495 kts 327°
2026-04-27 08:05 50.07228 137.25327 35976 ft 495 kts 327°
2026-04-27 08:05 50.13120 137.19780 35982 ft 495 kts 327°
2026-04-27 08:06 50.19008 137.14223 35976 ft 494 kts 327°
2026-04-27 08:06 50.24894 137.08653 35984 ft 494 kts 327°
2026-04-27 08:07 50.30772 137.03073 35989 ft 495 kts 327°
2026-04-27 08:07 50.36652 136.97475 35990 ft 494 kts 327°
2026-04-27 08:08 50.42235 136.91394 35992 ft 491 kts 318°
2026-04-27 08:08 50.47411 136.84414 35995 ft 491 kts 317°
2026-04-27 08:09 50.52512 136.77289 35998 ft 490 kts 317°
2026-04-27 08:09 50.57601 136.70124 35994 ft 490 kts 317°
2026-04-27 08:10 50.62685 136.62967 36012 ft 490 kts 317°
2026-04-27 08:10 50.67770 136.55798 36004 ft 490 kts 317°
2026-04-27 08:11 50.72854 136.48619 35995 ft 490 kts 317°
2026-04-27 08:11 50.77899 136.41468 35998 ft 490 kts 317°
2026-04-27 08:12 50.82967 136.34265 35999 ft 490 kts 317°
2026-04-27 08:12 50.88024 136.27053 36018 ft 490 kts 317°
2026-04-27 08:13 50.93084 136.19813 36022 ft 489 kts 317°
2026-04-27 08:13 50.98131 136.12571 36008 ft 489 kts 317°
2026-04-27 08:14 51.03169 136.05320 36030 ft 489 kts 317°
2026-04-27 08:14 51.08201 135.98058 36018 ft 488 kts 317°
2026-04-27 08:15 51.13228 135.90775 36027 ft 488 kts 318°
2026-04-27 08:15 51.18208 135.83543 36026 ft 488 kts 318°
2026-04-27 08:16 51.23248 135.76200 36026 ft 488 kts 318°
2026-04-27 08:16 51.28225 135.68930 36027 ft 488 kts 318°
2026-04-27 08:17 51.33227 135.61601 36034 ft 488 kts 318°
2026-04-27 08:17 51.38228 135.54245 36028 ft 488 kts 318°